EW6434 Weather Reports


time (UTC)temp
C
wind
direction
speed
KPH
gust
KPH
rain 1hr
cm
rain 24hr
cm
rain mn
cm
humidity
%
barometer
mb
20220811230043 16 240 0.0 11.3 0.00 0.03 0.03 76 1013.0
20220811224549 16 227 0.0 11.3 0.00 0.03 0.03 77 1013.2
20220811223047 17 228 0.0 9.7 0.00 0.03 0.03 72 1013.6
20220811221541 19 54 0.0 0.0 0.00 0.03 0.03 63 1013.4
20220811220041 21 105 0.0 0.0 0.00 0.03 0.03 61 1013.3
20220811214539 21 217 0.0 4.8 0.00 0.03 0.03 61 1013.2
20220811213038 20 190 0.0 1.6 0.00 0.03 0.03 67 1013.4
20220811211542 18 98 0.0 1.6 0.00 0.03 0.03 68 1013.7
20220811210038 19 131 0.0 0.0 0.00 0.03 0.03 64 1013.8
20220811204606 20 132 0.0 1.6 0.00 0.05 0.03 58 1013.9
20220811203112 21 75 0.0 6.4 0.00 0.05 0.03 58 1014.2
20220811201539 19 112 0.0 4.8 0.00 0.05 0.03 63 1014.4
20220811200029 17 65 0.0 1.6 0.00 0.05 0.03 69 1014.5
20220811194528 18 56 0.0 0.0 0.00 0.10 0.03 68 1014.4
20220811193027 19 236 0.0 0.0 0.00 0.10 0.03 63 1014.4
20220811191526 18 237 0.0 0.0 0.00 0.10 0.03 66 1014.5
20220811190030 20 236 0.0 0.0 0.00 0.10 0.03 69 1014.5
20220811184623 20 237 0.0 0.0 0.00 0.10 0.03 64 1014.9
20220811183022 21 237 0.0 0.0 0.00 0.10 0.03 58 1015.0
20220811181519 19 222 0.0 0.0 0.00 0.10 0.03 64 1015.2
20220811180017 20 222 0.0 0.0 0.00 0.10 0.03 59 1015.3
20220811174516 20 80 0.0 0.0 0.00 0.10 0.03 67 1015.6
20220811173014 20 80 0.0 0.0 0.00 0.10 0.03 56 1015.8
20220811171523 18 214 0.0 0.0 0.00 0.10 0.03 69 1015.9
20220811170008 18 214 0.0 0.0 0.00 0.10 0.03 64 1016.2
20220811164506 18 236 0.0 0.0 0.00 0.10 0.03 65 1016.4
20220811163007 18 236 0.0 0.0 0.00 0.10 0.03 63 1016.8
20220811161503 18 236 0.0 0.0 0.00 0.10 0.03 67 1016.8
20220811160107 17 236 0.0 0.0 0.00 0.10 0.03 71 1017.2
20220811154554 16 236 0.0 0.0 0.00 0.10 0.03 76 1017.4
20220811153059 14 227 0.0 0.0 0.00 0.10 0.03 79 1017.7
20220811151546 12 200 0.0 0.0 0.00 0.10 0.03 85 1018.0
20220811150041 11 201 0.0 0.0 0.00 0.10 0.03 89 1018.1
20220811144540 10 201 0.0 0.0 0.00 0.10 0.03 97 1018.3
20220811143101 8 200 0.0 0.0 0.00 0.10 0.03 97 1018.5
20220811141550 8 200 0.0 0.0 0.00 0.10 0.03 97 1018.5
20220811140039 8 200 0.0 0.0 0.00 0.10 0.03 97 1018.5
20220811134541 7 200 0.0 0.0 0.00 0.10 0.03 96 1018.4
20220811133111 7 200 0.0 0.0 0.00 0.10 0.03 96 1018.4
20220811131542 7 200 0.0 0.0 0.00 0.10 0.03 96 1018.3
20220811130037 7 200 0.0 0.0 0.00 0.10 0.03 96 1018.1
20220811124552 7 202 0.0 0.0 0.00 0.10 0.03 96 1018.1
20220811123038 7 172 0.0 0.0 0.00 0.10 0.03 96 1018.1
20220811121535 7 172 0.0 0.0 0.00 0.10 0.03 96 1017.9
20220811120034 7 172 0.0 0.0 0.03 0.10 0.03 96 1017.9
20220811114538 8 172 0.0 0.0 0.03 0.10 0.03 96 1017.9
20220811113126 8 172 0.0 0.0 0.03 0.10 0.03 96 1018.1
20220811111510 8 172 0.0 0.0 0.03 0.10 0.03 95 1018.1
20220811110003 8 172 0.0 0.0 0.00 0.08 0.00 95 1018.1
20220811104539 8 172 0.0 0.0 0.00 0.08 0.00 95 1018.1
20220811103140 8 172 0.0 0.0 0.00 0.08 0.00 95 1018.2
20220811101544 8 172 0.0 0.0 0.00 0.08 0.00 95 1018.2
20220811100032 8 172 0.0 0.0 0.00 0.08 0.00 95 1018.2
20220811094607 8 172 0.0 0.0 0.00 0.08 0.00 94 1018.2
20220811093040 8 172 0.0 0.0 0.00 0.08 0.00 95 1018.5
20220811091538 8 172 0.0 0.0 0.00 0.08 0.00 94 1018.4
20220811090031 8 172 0.0 0.0 0.00 0.08 0.00 94 1018.4
20220811084524 9 172 0.0 0.0 0.00 0.08 0.00 94 1018.3
20220811083025 9 172 0.0 0.0 0.00 0.08 0.00 94 1018.3
20220811081522 9 172 0.0 0.0 0.00 0.08 0.00 93 1018.2
20220811080020 10 172 0.0 0.0 0.00 0.08 0.00 93 1018.1
20220811074519 10 129 0.0 0.0 0.00 0.08 0.00 93 1018.1
20220811073016 10 129 0.0 0.0 0.00 0.08 0.00 92 1018.2
20220811071515 10 129 0.0 0.0 0.00 0.08 0.00 91 1018.1
20220811070015 10 129 0.0 0.0 0.00 0.08 0.00 91 1018.2
20220811064511 11 129 0.0 1.6 0.00 0.08 0.00 90 1018.1
20220811063023 11 210 0.0 0.0 0.00 0.08 0.00 90 1017.9
20220811061512 11 87 0.0 0.0 0.00 0.08 0.00 90 1017.8
20220811060016 11 243 0.0 0.0 0.00 0.08 0.00 90 1017.8
20220811054507 11 243 0.0 0.0 0.00 0.08 0.08 90 1017.8
20220811053006 11 243 0.0 0.0 0.00 0.08 0.08 89 1017.8
20220811051505 11 243 0.0 0.0 0.00 0.08 0.08 90 1017.7
20220811050005 11 243 0.0 0.0 0.00 0.08 0.08 90 1017.7
20220811044503 11 243 0.0 0.0 0.00 0.08 0.08 89 1017.5
20220811043003 11 243 0.0 0.0 0.00 0.08 0.08 89 1017.4
20220811041502 12 243 0.0 0.0 0.00 0.08 0.08 87 1017.2
20220811040006 12 243 0.0 0.0 0.00 0.08 0.08 86 1017.3
20220811034501 12 243 0.0 0.0 0.00 0.08 0.08 85 1016.8
20220811033001 13 243 0.0 0.0 0.00 0.08 0.08 84 1016.4
20220811030042 13 243 0.0 0.0 0.00 0.08 0.08 85 1015.6
20220811024552 14 243 0.0 0.0 0.00 0.08 0.08 82 1015.2
20220811023050 15 243 0.0 0.0 0.00 0.08 0.08 80 1015.0
20220811021542 15 177 0.0 0.0 0.00 0.08 0.08 84 1014.7
20220811020040 16 95 0.0 0.0 0.00 0.08 0.08 80 1014.2
20220811014553 16 94 0.0 0.0 0.00 0.08 0.08 78 1014.0
20220811013053 17 190 0.0 0.0 0.00 0.08 0.08 80 1014.0
20220811011542 18 190 0.0 0.0 0.00 0.08 0.08 79 1013.9
20220811010038 18 218 0.0 1.6 0.00 0.08 0.08 74 1013.6
20220811004547 18 96 0.0 3.2 0.00 0.08 0.08 73 1013.5
20220811003037 17 148 1.6 8.0 0.00 0.08 0.08 73 1013.6
20220811001537 20 94 0.0 8.0 0.00 0.08 0.08 64 1013.5
20220811000034 21 230 0.0 3.2 0.00 0.08 0.08 61 1013.6
20220810234534 20 124 0.0 8.0 0.00 0.08 0.08 59 1013.8
20220810233032 20 83 0.0 3.2 0.00 0.08 0.08 64 1014.0
20220810231531 20 49 0.0 0.0 0.00 0.08 0.08 59 1014.0